Tracking 23610 objects as of 19-Sep-2021
HD Live streaming from Space Station
objects crossing your sky now

DMSP 5D-2 F13 DEB

Track DMSP 5D-2 F13 DEB now!
10-day predictions


NORAD ID: 40474
Int'l Code: 1995-015BS
Perigee: 684.0 km
Apogee: 769.8 km
Inclination: 98.9 °
Period: 99.2 minutes
Semi major axis: 7097 km
RCS: Unknown
Launch date: March 24, 1995
Source: United States (US)
Launch site: AIR FORCE WESTERN TEST RANGE (AFWTR)

Note: This is SATELLITE DEBRIS
aabbcc
Your satellite tracking list
Your tracking list is empty




NASA's NSSDC Master Catalog

Two Line Element Set (TLE):
1 40474U 95015BS  21261.61201215  .00004642  00000-0  11386-2 0  9996
2 40474  98.8590  37.6113 0060473  50.2476 310.4023 14.51807254344039
Source of the keplerian elements: AFSPC